Regional Weather Roundup
Issued by NWS Upton, NY

Home | Current Version | Previous Version | Text Only | Print | Product List | Glossary On
Versions: 1 2 3 4 5 6 7 8 9 10 11 12 13 14 15 16 17 18 19 20 21 22 23 24 25 26 27 28 29 30 31 32 33 34 35 36 37 38 39 40 41 42 43 44 45 46 47 48 49 50
000
ASUS41 KOKX 250105
RWROKX

REGIONAL WEATHER ROUNDUP
NATIONAL WEATHER SERVICE NEW YORK NY
800 PM EST MON NOV 24 2014

NOTE: "FAIR" INDICATES FEW OR NO CLOUDS BELOW 12,000 FEET WITH NO
SIGNIFICANT WEATHER AND/OR OBSTRUCTIONS TO VISIBILITY.

NYZ071-072-176-178-NJZ106-104-250200-
NEW YORK CITY METRO AREA


CITY           SKY/WX    TMP DP  RH WIND       PRES   REMARKS
CENTRAL PARK   CLEAR     65  54  67 S6        29.71R
LAGUARDIA APRT CLEAR     65  55  70 S13       29.68S
KENNEDY INTL   CLEAR     60  54  80 S17       29.71R
NEWARK/LIBERTY CLEAR     67  52  58 S14G23    29.67S
BRNX BOT. GARD   N/A     63  54  72 S8        29.71R
TETERBORO      CLEAR     65  54  67 S9        29.67R
$$

NYZ177-179-078>081-250200-
LONG ISLAND NEW YORK

CITY           SKY/WX    TMP DP  RH WIND       PRES   REMARKS
FARMINGDALE    CLEAR     60  55  83 SW9       29.72R
ISLIP          CLEAR     59  55  87 SW14G23   29.71R
SHIRLEY        CLEAR     59  56  89 SW17G24   29.74R
WESTHAMPTON    CLOUDY    57  55  93 SW12      29.75R FOG
MONTAUK POINT    N/A     60  57  89 SW14G24   29.74R
$$

NYZ052-065-067-250200-
HUDSON VALLEY

CITY           SKY/WX    TMP DP  RH WIND       PRES   REMARKS
WHITE PLAINS   CLEAR     59  54  83 S7        29.69R
NEWBURGH       CLEAR     64  55  72 SW7G21    29.65R
MONTGOMERY     CLEAR     63  53  70 S8        29.63R
POUGHKEEPSIE   CLEAR     68  54  60 S12G22    29.64R
ALBANY         PTCLDY    65  51  60 S13G23    29.56R
$$

NJZ001-105-106-008-010-013-015-019>022-104-250200-
NEW JERSEY

CITY           SKY/WX    TMP DP  RH WIND       PRES   REMARKS
NEWARK/LIBERTY CLEAR     67  52  58 S14G23    29.67S
TETERBORO      CLEAR     65  54  67 S9        29.67R
CALDWELL       CLEAR     66  53  63 SW7       29.67S
MORRISTOWN     CLEAR     66  55  68 SW13G20   29.67S
SOMERVILLE     CLEAR     67  54  63 S9G17     29.66R
SUSSEX         CLEAR     62  54  74 SW8       29.66R
ANDOVER          N/A     62  53  72 SW12G17   29.66R
TRENTON        CLEAR     65  54  67 S15       29.68F
MILLVILLE      CLEAR     61  56  83 VRB6      29.75R
ATLANTIC CITY  CLEAR     60  58  92 S13       29.76R
WRIGHTSTOWN    CLEAR     63  57  81 S12       29.70R
TOMS RIVER     CLEAR     64  57  77 SW9       29.73S
BELMAR         CLEAR     64  55  72 SW13      29.71S
$$

PAZ047>061-062-071-250200-
EASTERN PENNSYLVANIA

CITY           SKY/WX    TMP DP  RH WIND       PRES   REMARKS
PHILADELPHIA   CLEAR     64  54  69 S13       29.71R
ALLENTOWN      CLEAR     63  53  70 SW9       29.66R
SCRANTON       PTCLDY    64  50  60 SW12G23   29.61R
$$

CTZ002-004>006-009-010-012-RIZ004-006-007-MAZ004-011-015-250200-
SOUTHERN NEW ENGLAND
 IN CT

CITY           SKY/WX    TMP DP  RH WIND       PRES   REMARKS
BRADLEY INTL   CLEAR     58  54  86 S12       29.65R
HARTFORD       CLEAR     60  54  80 S6        29.66R
DANBURY        CLEAR     62  52  69 SW12G18   29.69R
WTRBRY/OXFORD  CLEAR     61  54  77 SW9       29.71R
BRIDGEPORT     CLEAR     61  54  77 SW13      29.70R
MERIDEN        CLEAR     57  54  89 SE7       29.68R
NEW HAVEN      CLEAR     57  51  80 S5        29.70R
CHESTER        FAIR      59  55  88 SW8G18    29.71R
GROTON         MOCLDY    57  56  96 SW17      29.71S FOG
WILLIMANTIC    CLEAR     61  55  81 VRB6      29.69R

 IN RI

CITY           SKY/WX    TMP DP  RH WIND       PRES   REMARKS
PROVIDENCE     PTCLDY    61  56  83 SW17G29   29.69R
BLOCK ISLAND   CLOUDY    57  54  88 SW14G20   29.74R
WESTERLY       PTCLDY    58  56  93 SW9G18    29.73S

 IN MA

CITY           SKY/WX    TMP DP  RH WIND       PRES   REMARKS
BOSTON         PTCLDY    62  56  80 SW20      29.65R
WORCESTER      CLEAR     59  54  83 SW22G29   29.66R
WESTFIELD      CLEAR     59  55  87 S9        29.64R
PROVINCETOWN   MOCLDY    59  55  88 SW25G36   29.69S
NANTUCKET      FOG       59  58  96 S22G30    29.76R VSB 1/2
$$

ANZ330-335-338-340-345-350-353-355-250200-
COASTAL MARINE OBSERVATIONS


STATION/POSITION TIME  SKY/WX   TEMP    WIND        PRES    VSBY  WAVE
                                AIR SEA DIR/SP/G                  HT/PER
                 (UTC)          (F)     (DEG/KT/KT) (MB)    (MI)  (FT/S)
NY HARB ENTRANCE 0100            58 58  210/ 17/ 21 1006.4          9/11
4S FIRE IS       0100               53                N/A          12/12
20S FIRE ISLAND  0100            61 56  220/ 21/ 27 1005.9         12/11
23SW MTP         0100                                 N/A          13/11
HUDSON CANYON    0100            63 60  210/ 19/ 23 1008.1         13/11
EXECUTION ROCKS  0100            57 48  210/ 14/ 17   N/A
WESTERN LI SOUND 0100            62     200/ 16/ 21   N/A           1/ 2
CENTRAL LI SOUND 0100            57 50  200/ 14/ 16   N/A           3/ 4
EASTERN LI SOUND 0000            56 52  220/ 16/ 21   N/A
ROBBINS REEF     0100            62     180/ 17/ 19 1003.8
$$


>>>>>>>>>>>>>>>>>>>>>>>>>>>> KEY <<<<<<<<<<<<<<<<<<<<<<<<<<<
>                                                          <
>     SKY/WX - SKY CONDITION/PRESENT WEATHER               <
>     TMP    - TEMPERATURE IN FAHRENHEIT                   <
>     DP     - DEWPOINT IN FAHRENHEIT                      <
>     RH     - RELATIVE HUMIDITY IN PERCENT                <
>     WIND   - DIRECTION AND SPEED IN MPH                  <
>     PRES   - MEAN SEA LEVEL PRESSURE IN INCHES OF HG     <
>     WCI    - WIND CHILL INDEX                            <
>     VSB    - VISIBILITY IN MILES                         <
>     HX     - HEAT INDEX                                  <
>     TC     - TEMPERATURE IN CELSIUS                      <
>     VRB    - VARIABLE WIND DIRECTION                     <
>                                                          <
>>>>>>>>>>>>>>>>>>>>>>>>>>>> KEY <<<<<<<<<<<<<<<<<<<<<<<<<<<




USA.gov is the U.S. government's official web portal to all federal, state and local government web resources and services.